<?xml version="1.0"?>
<gpx xmlns="http://www.topografix.com/GPX/1/1" xmlns:xsi="http://www.w3.org/2001/XMLSchema-instance" version="1.1" creator="GPX RubyGem 1.0.0 -- http://dougfales.github.io/gpx/" xsi:schemaLocation="http://www.topografix.com/GPX/1/1 http://www.topografix.com/GPX/1/1/gpx.xsd">
  <metadata>
    <name/>
    <time>2026-05-10T19:52:27+00:00</time>
    <bound minlat="90.0" minlon="180.0" maxlat="-90.0" maxlon="-180.0"/>
  </metadata>
  <trk>
    <name/>
    <trkseg>
      <trkpt lat="59.347237" lon="18.265874">
        <time>1970-01-01T00:00:00+00:00</time>
        <ele>22.0</ele>
      </trkpt>
      <trkpt lat="59.347209" lon="18.265671">
        <time>1970-01-01T00:00:00+00:00</time>
        <ele>25.0</ele>
      </trkpt>
      <trkpt lat="59.347204" lon="18.265527">
        <time>1970-01-01T00:00:00+00:00</time>
        <ele>26.0</ele>
      </trkpt>
      <trkpt lat="59.347243" lon="18.265344">
        <time>1970-01-01T00:00:00+00:00</time>
        <ele>27.0</ele>
      </trkpt>
      <trkpt lat="59.347281" lon="18.26525">
        <time>1970-01-01T00:00:00+00:00</time>
        <ele>27.0</ele>
      </trkpt>
      <trkpt lat="59.347286" lon="18.265239">
        <time>1970-01-01T00:00:00+00:00</time>
        <ele>27.0</ele>
      </trkpt>
      <trkpt lat="59.347513" lon="18.264746">
        <time>1970-01-01T00:00:00+00:00</time>
        <ele>24.0</ele>
      </trkpt>
      <trkpt lat="59.347593" lon="18.264323">
        <time>1970-01-01T00:00:00+00:00</time>
        <ele>22.0</ele>
      </trkpt>
      <trkpt lat="59.347753" lon="18.263899">
        <time>1970-01-01T00:00:00+00:00</time>
        <ele>15.0</ele>
      </trkpt>
      <trkpt lat="59.347779" lon="18.263649">
        <time>1970-01-01T00:00:00+00:00</time>
        <ele>13.0</ele>
      </trkpt>
      <trkpt lat="59.347767" lon="18.263534">
        <time>1970-01-01T00:00:00+00:00</time>
        <ele>13.0</ele>
      </trkpt>
      <trkpt lat="59.347976" lon="18.263373">
        <time>1970-01-01T00:00:00+00:00</time>
        <ele>6.0</ele>
      </trkpt>
      <trkpt lat="59.348062" lon="18.263314">
        <time>1970-01-01T00:00:00+00:00</time>
        <ele>4.0</ele>
      </trkpt>
      <trkpt lat="59.34813" lon="18.263248">
        <time>1970-01-01T00:00:00+00:00</time>
        <ele>5.0</ele>
      </trkpt>
      <trkpt lat="59.348238" lon="18.263702">
        <time>1970-01-01T00:00:00+00:00</time>
        <ele>7.0</ele>
      </trkpt>
      <trkpt lat="59.348489" lon="18.264563">
        <time>1970-01-01T00:00:00+00:00</time>
        <ele>13.0</ele>
      </trkpt>
      <trkpt lat="59.348657" lon="18.265015">
        <time>1970-01-01T00:00:00+00:00</time>
        <ele>16.0</ele>
      </trkpt>
      <trkpt lat="59.348815" lon="18.265246">
        <time>1970-01-01T00:00:00+00:00</time>
        <ele>17.0</ele>
      </trkpt>
      <trkpt lat="59.348856" lon="18.265234">
        <time>1970-01-01T00:00:00+00:00</time>
        <ele>17.0</ele>
      </trkpt>
      <trkpt lat="59.348855" lon="18.264915">
        <time>1970-01-01T00:00:00+00:00</time>
        <ele>20.0</ele>
      </trkpt>
      <trkpt lat="59.348864" lon="18.264344">
        <time>1970-01-01T00:00:00+00:00</time>
        <ele>22.0</ele>
      </trkpt>
      <trkpt lat="59.348879" lon="18.2631">
        <time>1970-01-01T00:00:00+00:00</time>
        <ele>27.0</ele>
      </trkpt>
      <trkpt lat="59.348933" lon="18.262527">
        <time>1970-01-01T00:00:00+00:00</time>
        <ele>29.0</ele>
      </trkpt>
      <trkpt lat="59.349076" lon="18.262169">
        <time>1970-01-01T00:00:00+00:00</time>
        <ele>32.0</ele>
      </trkpt>
      <trkpt lat="59.349266" lon="18.261819">
        <time>1970-01-01T00:00:00+00:00</time>
        <ele>36.0</ele>
      </trkpt>
      <trkpt lat="59.349181" lon="18.261514">
        <time>1970-01-01T00:00:00+00:00</time>
        <ele>36.0</ele>
      </trkpt>
      <trkpt lat="59.349117" lon="18.261071">
        <time>1970-01-01T00:00:00+00:00</time>
        <ele>33.0</ele>
      </trkpt>
      <trkpt lat="59.349146" lon="18.260571">
        <time>1970-01-01T00:00:00+00:00</time>
        <ele>32.0</ele>
      </trkpt>
      <trkpt lat="59.349113" lon="18.260337">
        <time>1970-01-01T00:00:00+00:00</time>
        <ele>31.0</ele>
      </trkpt>
      <trkpt lat="59.349092" lon="18.260189">
        <time>1970-01-01T00:00:00+00:00</time>
        <ele>30.0</ele>
      </trkpt>
      <trkpt lat="59.349026" lon="18.25988">
        <time>1970-01-01T00:00:00+00:00</time>
        <ele>28.0</ele>
      </trkpt>
      <trkpt lat="59.34908" lon="18.259514">
        <time>1970-01-01T00:00:00+00:00</time>
        <ele>26.0</ele>
      </trkpt>
      <trkpt lat="59.349085" lon="18.259434">
        <time>1970-01-01T00:00:00+00:00</time>
        <ele>25.0</ele>
      </trkpt>
      <trkpt lat="59.349206" lon="18.259274">
        <time>1970-01-01T00:00:00+00:00</time>
        <ele>23.0</ele>
      </trkpt>
      <trkpt lat="59.349206" lon="18.259274">
        <time>1970-01-01T00:00:00+00:00</time>
        <ele>23.0</ele>
      </trkpt>
      <trkpt lat="59.349085" lon="18.259434">
        <time>1970-01-01T00:00:00+00:00</time>
        <ele>25.0</ele>
      </trkpt>
      <trkpt lat="59.34908" lon="18.259514">
        <time>1970-01-01T00:00:00+00:00</time>
        <ele>26.0</ele>
      </trkpt>
      <trkpt lat="59.349026" lon="18.25988">
        <time>1970-01-01T00:00:00+00:00</time>
        <ele>28.0</ele>
      </trkpt>
      <trkpt lat="59.349092" lon="18.260189">
        <time>1970-01-01T00:00:00+00:00</time>
        <ele>30.0</ele>
      </trkpt>
      <trkpt lat="59.349113" lon="18.260337">
        <time>1970-01-01T00:00:00+00:00</time>
        <ele>31.0</ele>
      </trkpt>
      <trkpt lat="59.349146" lon="18.260571">
        <time>1970-01-01T00:00:00+00:00</time>
        <ele>32.0</ele>
      </trkpt>
      <trkpt lat="59.349117" lon="18.261071">
        <time>1970-01-01T00:00:00+00:00</time>
        <ele>33.0</ele>
      </trkpt>
      <trkpt lat="59.349181" lon="18.261514">
        <time>1970-01-01T00:00:00+00:00</time>
        <ele>36.0</ele>
      </trkpt>
      <trkpt lat="59.349266" lon="18.261819">
        <time>1970-01-01T00:00:00+00:00</time>
        <ele>36.0</ele>
      </trkpt>
      <trkpt lat="59.349076" lon="18.262169">
        <time>1970-01-01T00:00:00+00:00</time>
        <ele>32.0</ele>
      </trkpt>
      <trkpt lat="59.348933" lon="18.262527">
        <time>1970-01-01T00:00:00+00:00</time>
        <ele>29.0</ele>
      </trkpt>
      <trkpt lat="59.348879" lon="18.2631">
        <time>1970-01-01T00:00:00+00:00</time>
        <ele>27.0</ele>
      </trkpt>
      <trkpt lat="59.348864" lon="18.264344">
        <time>1970-01-01T00:00:00+00:00</time>
        <ele>22.0</ele>
      </trkpt>
      <trkpt lat="59.348855" lon="18.264915">
        <time>1970-01-01T00:00:00+00:00</time>
        <ele>20.0</ele>
      </trkpt>
      <trkpt lat="59.348856" lon="18.265234">
        <time>1970-01-01T00:00:00+00:00</time>
        <ele>17.0</ele>
      </trkpt>
      <trkpt lat="59.348815" lon="18.265246">
        <time>1970-01-01T00:00:00+00:00</time>
        <ele>17.0</ele>
      </trkpt>
      <trkpt lat="59.348657" lon="18.265015">
        <time>1970-01-01T00:00:00+00:00</time>
        <ele>16.0</ele>
      </trkpt>
      <trkpt lat="59.348489" lon="18.264563">
        <time>1970-01-01T00:00:00+00:00</time>
        <ele>13.0</ele>
      </trkpt>
      <trkpt lat="59.348238" lon="18.263702">
        <time>1970-01-01T00:00:00+00:00</time>
        <ele>7.0</ele>
      </trkpt>
      <trkpt lat="59.34813" lon="18.263248">
        <time>1970-01-01T00:00:00+00:00</time>
        <ele>5.0</ele>
      </trkpt>
      <trkpt lat="59.348062" lon="18.263314">
        <time>1970-01-01T00:00:00+00:00</time>
        <ele>4.0</ele>
      </trkpt>
      <trkpt lat="59.347976" lon="18.263373">
        <time>1970-01-01T00:00:00+00:00</time>
        <ele>6.0</ele>
      </trkpt>
      <trkpt lat="59.347767" lon="18.263534">
        <time>1970-01-01T00:00:00+00:00</time>
        <ele>13.0</ele>
      </trkpt>
      <trkpt lat="59.347779" lon="18.263649">
        <time>1970-01-01T00:00:00+00:00</time>
        <ele>13.0</ele>
      </trkpt>
      <trkpt lat="59.347753" lon="18.263899">
        <time>1970-01-01T00:00:00+00:00</time>
        <ele>15.0</ele>
      </trkpt>
      <trkpt lat="59.347593" lon="18.264323">
        <time>1970-01-01T00:00:00+00:00</time>
        <ele>22.0</ele>
      </trkpt>
      <trkpt lat="59.347513" lon="18.264746">
        <time>1970-01-01T00:00:00+00:00</time>
        <ele>24.0</ele>
      </trkpt>
      <trkpt lat="59.347286" lon="18.265239">
        <time>1970-01-01T00:00:00+00:00</time>
        <ele>27.0</ele>
      </trkpt>
      <trkpt lat="59.347281" lon="18.26525">
        <time>1970-01-01T00:00:00+00:00</time>
        <ele>27.0</ele>
      </trkpt>
      <trkpt lat="59.347243" lon="18.265344">
        <time>1970-01-01T00:00:00+00:00</time>
        <ele>27.0</ele>
      </trkpt>
      <trkpt lat="59.347204" lon="18.265527">
        <time>1970-01-01T00:00:00+00:00</time>
        <ele>26.0</ele>
      </trkpt>
      <trkpt lat="59.347209" lon="18.265671">
        <time>1970-01-01T00:00:00+00:00</time>
        <ele>25.0</ele>
      </trkpt>
      <trkpt lat="59.347237" lon="18.265874">
        <time>1970-01-01T00:00:00+00:00</time>
        <ele>22.0</ele>
      </trkpt>
    </trkseg>
  </trk>
</gpx>
